Location: Byszew
(52.1813°N, 19.2693°E)
Time: 21:33:43
(UTC+00:00)

SJ-11-01 - Pass Details

Date: 03 March 2021
Orbit: 685 x 700 km, 98.0° (Epoch: 16 April)

Event Time Altitude Azimuth Distance (km) Brightness Sun altitude
Rises 17:18:17 0° 165° (SSE) 3,046 7.4 -8.8°
Reaches altitude 10° 17:20:30 10° 165° (SSE) 2,136 6.7 -9.1°
Maximum altitude 17:25:12 87° 256° (WSW) 700 4.3 -9.8°
Drops below altitude 10° 17:29:57 10° 345° (NNW) 2,163 7.1 -10.6°
Sets 17:32:13 0° 346° (NNW) 3,087 7.9 -10.9°
